Date String (YYYY-MM-DD hh:mm:ss) UTC,Instrument flags,Ambient pressure (hPa),Sample flow (lpm),Bypass flow (lpm),Sample temperature (°C),Ambient temperature (°C),ASC tube jacket temperature (°C),LED temperature (°C),Box temperature (°C),Sample RH (%),Span deviation,Mass concentration (μg/m³),Mass concentration (μg/m³),Mass concentration (μg/m³)
DateTimeUTC,F1_M11,P_M11,Q1_M11,Q2_M11,T1_M11,T2_M11,T3_M11,T4_M11,T5_M11,U1_M11,ZSPAN_M11,X0_M11,X2_M11,X1_M11
2022-03-29 10:00:00,,0811.0,5.00,0.00,28.4,27.5,00.0,37.5,30.2,10.2,0000.0,0013.84,0004.94,0003.76
2022-03-29 10:01:00,,0811.0,5.00,0.00,28.5,27.6,00.0,37.5,30.2,10.2,0000.0,0015.16,0005.06,0003.85
2022-03-29 10:02:00,,0811.0,5.00,0.00,28.5,27.6,00.0,37.5,30.2,10.3,0000.0,0016.15,0005.19,0003.97
2022-03-29 10:03:00,,0811.0,5.02,0.00,28.5,27.6,00.0,37.5,30.2,10.3,0000.0,0016.71,0005.37,0004.10
2022-03-29 10:04:00,,0811.0,4.98,0.00,28.5,27.6,00.0,37.5,30.2,10.2,0000.0,0017.01,0005.53,0004.22
2022-03-29 10:05:00,,0811.0,5.00,0.00,28.5,27.6,00.0,37.5,30.2,10.2,0000.0,0017.14,0005.58,0004.30
2022-03-29 10:06:00,,0811.0,5.00,0.00,28.4,27.6,00.0,37.5,30.1,10.3,0000.0,0016.15,0005.63,0004.36
2022-03-29 10:07:00,,0811.0,5.01,0.00,28.4,27.6,00.0,37.5,30.1,10.4,0000.0,0015.98,0005.70,0004.41
2022-03-29 10:08:00,,0811.0,4.99,0.00,28.4,27.5,00.0,37.5,30.1,10.4,0000.0,0016.21,0005.76,0004.44
2022-03-29 10:09:00,,0811.0,5.01,0.00,28.4,27.5,00.0,37.5,30.1,10.5,0000.0,0016.16,0005.73,0004.45
2022-03-29 10:10:00,,0811.0,5.00,0.00,28.4,27.5,00.0,37.4,30.1,10.4,0000.0,0017.81,0005.72,0004.44
2022-03-29 10:11:00,,0811.0,5.00,0.00,28.4,27.5,00.0,37.4,30.1,10.2,0000.0,0019.01,0005.66,0004.37
2022-03-29 10:12:00,,0810.9,5.00,0.00,28.4,27.6,00.0,37.4,30.1,10.2,0000.0,0018.55,0005.53,0004.27
2022-03-29 10:13:00,,0810.9,5.00,0.00,28.4,27.6,00.0,37.4,30.1,10.2,0000.0,0017.58,0005.42,0004.18
2022-03-29 10:14:00,,0810.8,5.01,0.00,28.4,27.6,00.0,37.4,30.2,10.2,0000.0,0016.99,0005.30,0004.10
2022-03-29 10:15:00,,0810.9,4.99,0.00,28.4,27.6,00.0,37.4,30.2,10.2,0000.0,0017.25,0005.19,0004.04
2022-03-29 10:16:00,,0811.0,4.99,0.00,28.4,27.6,00.0,37.4,30.2,10.2,0000.0,0017.49,0005.14,0004.02
2022-03-29 10:17:00,,0810.9,5.01,0.00,28.4,27.6,00.0,37.4,30.1,10.2,0000.0,0017.55,0005.04,0003.97
2022-03-29 10:18:00,,0810.9,4.99,0.00,28.3,27.5,00.0,37.4,30.0,10.4,0000.0,0017.64,0004.87,0003.88
2022-03-29 10:19:00,,0810.9,5.00,0.00,28.3,27.5,00.0,37.4,30.0,10.4,0000.0,0017.59,0004.81,0003.81
2022-03-29 10:20:00,,0810.9,5.01,0.00,28.3,27.5,00.0,37.4,30.0,10.5,0000.0,0018.17,0004.79,0003.78
2022-03-29 10:21:00,,0811.0,4.98,0.00,28.3,27.5,00.0,37.4,30.0,10.6,0000.0,0016.55,0004.77,0003.77
2022-03-29 10:22:00,,0810.9,5.02,0.00,28.3,27.5,00.0,37.4,30.0,10.6,0000.0,0015.34,0004.84,0003.85
2022-03-29 10:23:00,,0810.8,5.00,0.00,28.3,27.5,00.0,37.4,30.0,10.7,0000.0,0015.32,0004.92,0003.94
2022-03-29 10:24:00,,0810.8,5.01,0.00,28.3,27.5,00.0,37.4,30.1,10.7,0000.0,0015.25,0005.02,0004.02
2022-03-29 10:25:00,,0810.8,4.99,0.00,28.3,27.5,00.0,37.4,30.1,10.6,0000.0,0015.09,0005.12,0004.10
2022-03-29 10:26:00,,0810.8,5.00,0.00,28.3,27.6,00.0,37.4,30.1,10.6,0000.0,0014.32,0005.18,0004.14
2022-03-29 10:27:00,,0810.9,5.02,0.00,28.4,27.6,00.0,37.4,30.1,10.6,0000.0,0014.20,0005.23,0004.15
2022-03-29 10:28:00,,0810.9,4.99,0.00,28.4,27.6,00.0,37.4,30.1,10.5,0000.0,0014.24,0005.36,0004.23
2022-03-29 10:29:00,,0810.9,5.01,0.00,28.3,27.5,00.0,37.4,30.0,10.6,0000.0,0014.08,0005.49,0004.32
2022-03-29 10:30:00,,0810.9,4.99,0.00,28.3,27.5,00.0,37.4,30.0,10.6,0000.0,0014.51,0005.59,0004.40
2022-03-29 10:31:00,,0810.9,5.01,0.00,28.2,27.4,00.0,37.3,29.9,10.6,0000.0,0014.77,0005.71,0004.47
2022-03-29 10:32:00,,0810.8,4.98,0.00,28.2,27.3,00.0,37.3,29.9,10.6,0000.0,0014.91,0005.71,0004.50
2022-03-29 10:33:00,,0810.8,5.01,0.00,28.2,27.3,00.0,37.3,29.8,10.6,0000.0,0015.13,0005.68,0004.51
2022-03-29 10:34:00,,0810.8,5.00,0.00,28.1,27.3,00.0,37.3,29.8,10.7,0000.0,0014.48,0005.73,0004.54
2022-03-29 10:35:00,,0810.8,4.99,0.00,28.1,27.2,00.0,37.3,29.7,10.7,0000.0,0014.72,0005.77,0004.56
2022-03-29 10:36:00,,0810.7,5.01,0.00,28.1,27.2,00.0,37.3,29.7,10.7,0000.0,0014.89,0005.80,0004.54
2022-03-29 10:37:00,,0810.7,4.99,0.00,28.0,27.2,00.0,37.2,29.7,10.7,0001.4,0015.21,0005.83,0004.55
2022-03-29 10:38:00,,0810.6,5.00,0.00,28.0,27.1,00.0,37.2,29.7,10.7,0002.5,0015.73,0005.92,0004.59
2022-03-29 10:39:00,,0810.6,5.00,0.00,28.0,27.1,00.0,37.2,29.7,10.7,0000.6,0016.39,0005.96,0004.59
2022-03-29 10:40:00,,0810.6,5.01,0.00,28.0,27.1,00.0,37.2,29.7,10.8,0001.4,0016.46,0006.02,0004.61
2022-03-29 10:41:00,,0810.6,4.99,0.00,28.0,27.2,00.0,37.2,29.7,10.8,0002.1,0015.73,0006.03,0004.61
2022-03-29 10:42:00,,0810.6,4.99,0.00,28.0,27.1,00.0,37.2,29.7,10.8,0000.0,0015.59,0006.01,0004.60
2022-03-29 10:43:00,,0810.6,5.02,0.00,28.0,27.1,00.0,37.1,29.7,10.8,0000.0,0016.07,0006.02,0004.61
2022-03-29 10:44:00,,0810.6,4.98,0.00,28.0,27.1,00.0,37.1,29.7,10.8,0001.3,0016.27,0006.10,0004.63
2022-03-29 10:45:00,,0810.6,5.02,0.00,28.0,27.1,00.0,37.1,29.7,10.8,0000.0,0016.74,0006.12,0004.63
2022-03-29 10:46:00,,0810.6,4.99,0.00,28.0,27.1,00.0,37.1,29.7,10.8,0000.0,0017.45,0006.08,0004.62
2022-03-29 10:47:00,,0810.6,5.01,0.00,28.0,27.1,00.0,37.1,29.7,10.9,0000.0,0017.44,0006.04,0004.61
2022-03-29 10:48:00,,0810.6,4.99,0.00,28.0,27.1,00.0,37.1,29.7,11.0,0000.0,0017.55,0006.01,0004.60
2022-03-29 10:49:00,,0810.6,5.00,0.00,27.9,27.1,00.0,37.1,29.7,11.0,0000.0,0016.93,0005.92,0004.59
2022-03-29 10:50:00,,0810.6,5.02,0.00,27.9,27.1,00.0,37.1,29.6,11.1,0000.0,0016.37,0005.90,0004.60
2022-03-29 10:51:00,,0810.6,5.00,0.00,27.9,27.0,00.0,37.0,29.6,11.1,0000.0,0016.29,0005.89,0004.59
2022-03-29 10:52:00,,0810.6,4.99,0.00,27.9,27.0,00.0,37.0,29.6,11.0,0000.0,0017.18,0005.94,0004.59
2022-03-29 10:53:00,,0810.6,5.01,0.00,27.9,27.0,00.0,37.0,29.6,11.1,0000.0,0017.47,0005.97,0004.60
2022-03-29 10:54:00,,0810.6,5.00,0.00,27.9,27.0,00.0,37.0,29.6,11.1,0000.0,0016.94,0005.97,0004.60
2022-03-29 10:55:00,,0810.6,4.98,0.00,27.9,27.0,00.0,37.0,29.6,11.2,0000.0,0016.89,0005.97,0004.61
2022-03-29 10:56:00,,0810.7,5.02,0.00,27.8,26.9,00.0,37.0,29.5,11.2,0000.0,0016.62,0005.99,0004.61
2022-03-29 10:57:00,,0810.7,4.99,0.00,27.8,26.9,00.0,37.0,29.6,11.3,0000.0,0016.08,0006.02,0004.64
2022-03-29 10:58:00,,0810.7,5.00,0.00,27.8,26.9,00.0,37.0,29.6,11.3,0000.0,0015.84,0006.04,0004.68
2022-03-29 10:59:00,,0810.6,5.01,0.00,27.8,26.9,00.0,36.9,29.6,11.4,0000.0,0015.46,0006.11,0004.72
